Location: Thomas Cemetery
(38.3324°N, 100.2725°W)
Time: 05:19:05
(UTC+00:00)

Daily predictions for brighter satellites

Satellite Brightness Start Highest point End
(mag) Time Altitude Azimuth Time Altitude Azimuth Time Altitude Azimuth
Okean-O 3.6 02:00:43 10° S 02:05:01 51° W 02:09:21 10° NNW
Cosmos 1763 Rocket 4.2 02:00:28 10° NNW 02:05:27 56° WSW 02:10:26 10° S
DELTA 2 R/B (1) 3.7 02:00:40 10° W 02:06:16 80° N 02:11:50 10° E
Cosmos 1606 3.9 02:05:01 10° SE 02:07:57 22° E 02:10:55 10° NE
ASTRO E2 3.8 02:04:40 10° WSW 02:08:10 30° S 02:11:39 10° ESE
NOSS 3-1 (A) 4.3 02:00:18 10° NNW 02:08:10 89° WSW 02:17:08 10° SSE
GENESIS II 4.2 02:04:45 10° NNW 02:08:38 75° ENE 02:12:29 10° SE
SL-4 R/B 3.9 02:05:43 10° NNW 02:09:20 25° NNE 02:13:08 10° E
Aureole 1 Rocket 4.2 02:06:22 10° SW 02:11:09 49° WNW 02:14:51 10° N
Cosmos 841 Rocket 3.5 02:07:05 10° NNW 02:12:16 75° ENE 02:17:23 10° SSE
IRIS 4.1 02:10:31 10° W 02:12:48 55° N 02:15:24 10° ENE
ARGOS 4.3 02:07:55 10° S 02:13:01 45° W 02:18:09 10° NNW
CZ-4 R/B 3.9 02:14:13 10° SSW 02:17:31 23° W 02:20:47 10° NW
Meteor 2-15 4.4 02:12:31 10° S 02:18:33 79° E 02:24:38 10° N
Meteor 2-2 Rocket 4.2 02:14:46 10° S 02:20:25 77° E 02:26:04 10° NNE
Cosmos 1500 Rocket 4.3 02:18:25 10° NNE 02:22:26 34° ENE 02:26:24 10° SE
Cosmos 2221 2.4 02:18:53 10° S 02:23:09 80° E 02:27:29 10° N
Cosmos 1174 3.6 02:22:49 10° NW 02:26:25 67° WSW 02:29:30 10° SSE
Cosmos 2263 Rocket 4.2 02:28:01 10° WSW 02:32:59 33° WNW 02:37:59 10° N
Cosmos 1943 3.5 02:31:01 10° NNW 02:36:38 71° WSW 02:42:15 10° SSE
ERS-2 3.5 02:33:17 10° N 02:36:44 43° WNW 02:40:10 10° SW
Cosmos 1844 Rocket 2.7 02:32:40 10° S 02:38:04 54° ESE 02:43:29 10° NNE
Resurs 01 Rocket 2.7 02:36:34 15° ESE 02:39:25 28° ENE 02:43:13 10° N
MOS 1-B Rocket 4.3 02:32:36 10° NNE 02:40:10 83° ESE 02:46:31 10° SSW
IRS-1A Rocket 4.4 02:34:47 10° SSE 02:40:26 65° ENE 02:46:12 10° N
FALCON 9 DEB 4.5 02:38:06 10° NNW 02:40:42 25° NNE 02:42:34 14° E
S3M 4.4 02:36:18 10° SSE 02:42:17 44° E 02:48:15 10° NNE
Cosmos 1570 Rocket 4.1 02:38:12 10° NNW 02:43:28 81° WSW 02:48:40 10° SSE
Ariane Rocket 3.0 02:40:23 11° SSE 02:45:17 67° ENE 02:50:18 10° N
Cosmos 1862 3.5 02:41:31 10° NNW 02:45:31 73° W 02:49:30 10° S
Cosmos 1933 4.4 02:43:53 18° SE 02:45:47 26° E 02:49:10 10° NNE
X-37B 2.8 02:46:35 10° WNW 02:49:16 24° N 02:51:57 10° NE
Sich 1 4.0 02:50:40 10° NNE 02:54:31 30° ENE 02:56:14 23° ESE
Cosmos 1844 3.7 02:50:16 10° S 02:55:55 63° ESE 03:01:33 10° NNE
Cosmos 1814 Rocket 4.5 02:53:11 10° NNW 02:58:19 59° WSW 03:03:22 10° S
Cosmos 1437 Rocket 2.6 02:56:13 10° S 03:00:01 79° E 03:03:56 10° NNE
Cosmos 1553 Rocket 4.0 02:55:11 10° S 03:01:17 87° W 03:07:31 10° N
SPOT 3 Rocket 3.8 03:02:32 23° SE 03:05:34 52° ENE 03:10:34 10° N
BREEZE-M DEB (TANK) 2.0 03:03:59 10° WNW 03:06:14 69° SW 03:07:19 35° SE
ATLAS 5 CENTAUR R/B 3.6 03:01:57 10° N 03:06:46 27° NE 03:10:23 17° E
Cosmos 1242 Rocket 2.9 03:11:06 38° SE 03:11:44 42° E 03:15:08 10° NNE
Cosmos 1782 3.8 03:12:18 28° E 03:12:23 28° E 03:15:49 10° NNE
CZ-4C R/B 4.5 03:08:29 10° N 03:13:56 22° NE 03:19:32 11° E
Cosmos 1151 Rocket 3.8 03:13:21 30° ESE 03:13:57 31° E 03:17:50 10° NNE
CZ-2C R/B 3.8 03:10:14 10° NNE 03:14:36 51° E 03:16:47 27° SSE
Cosmos 968 Rocket 4.1 03:10:44 10° SSW 03:15:54 60° WNW 03:21:06 10° N
Cosmos 1486 Rocket 4.3 03:14:51 10° SSW 03:20:08 69° WNW 03:25:29 10° NNE
OBJECT-B 3.4 03:20:07 10° SW 03:22:24 18° W 03:24:42 10° NW
Landsat 7 3.8 03:23:52 34° SSE 03:25:52 70° ENE 03:30:36 10° N
FALCON 9 DEB 2.7 03:24:37 10° NW 03:27:35 86° W 03:27:35 86° W
ARIANE 5 R/B 3.5 03:27:44 29° E 03:28:14 30° ENE 03:32:01 10° N
BREEZE-M DEB (TANK) 3.3 03:25:54 10° NW 03:33:35 57° NNE 03:34:30 42° ENE
Cosmos 1805 Rocket 3.7 03:29:45 10° NNW 03:34:04 68° W 03:36:01 31° SSW
FALCON 9 DEB 3.1 03:31:08 10° NW 03:33:51 61° W 03:33:51 61° W
CRYOSAT 2 4.4 03:35:37 43° SE 03:36:55 59° E 03:41:44 10° N
Cosmos 1602 3.9 03:35:41 10° N 03:39:21 51° ENE 03:39:21 51° ENE
FALCON 9 DEB 3.4 03:38:49 10° NW 03:41:19 55° WNW 03:41:19 55° WNW
Cosmos 1633 Rocket 3.2 03:38:50 10° N 03:43:07 51° E 03:43:21 50° E
Meteor 1-20 Rocket 4.1 03:37:48 10° N 03:43:27 87° W 03:45:46 37° S
Cosmos 2082 Rocket 4.4 03:44:16 10° NNE 03:46:12 12° NE 03:48:04 10° ENE
SL-4 R/B 2.2 03:44:51 10° NW 03:49:22 81° SW 03:50:00 65° SSE
Cosmos 1328 Rocket 3.4 03:49:46 65° ESE 03:50:00 67° E 03:54:25 10° NNE
Cosmos 1470 Rocket 4.5 03:47:26 10° N 03:51:12 35° ENE 03:51:12 35° ENE
DELTA 2 R/B (1) 3.4 03:47:16 10° WNW 03:52:51 87° S 03:54:20 50° ESE
Spot 2 Rocket 3.5 03:52:22 54° ESE 03:53:16 65° ENE 03:58:16 10° N
NOSS 3-3 (A) 3.7 03:48:25 10° SSW 03:54:00 81° ESE 04:00:18 10° NE
NOSS 3-3 (C) 3.7 03:48:31 10° SSW 03:54:06 81° ESE 04:00:24 10° NE
CARTOSAT-1 3.7 03:55:59 56° ENE 03:55:59 56° ENE 04:00:08 10° N
USA 290 3.5 03:59:58 10° NNW 04:02:15 41° NW 04:02:15 41° NW
Cosmos 1812 4.0 04:06:16 31° NE 04:06:16 31° NE 04:08:30 10° NNE
Cosmos 2278 Rocket 2.5 04:08:10 48° E 04:08:10 48° E 04:13:05 10° NNE
Cosmos 1666 Rocket 3.7 04:03:42 10° NNW 04:08:04 64° W 04:08:24 62° WSW
ERS-1 Rocket 3.0 04:11:00 62° E 04:11:08 62° ENE 04:16:06 10° N
Cosmos 2184 Rocket 4.5 04:07:16 10° N 04:13:06 41° ENE 04:13:28 40° E
Cosmos 1709 Rocket 4.1 04:09:38 10° NNW 04:15:42 67° W 04:17:42 42° SSW
Resurs 01 Rocket 3.5 04:14:08 19° SW 04:15:51 24° W 04:19:28 10° NW
Cosmos 1777 Rocket 3.8 04:17:06 79° S 04:17:23 85° ESE 04:22:37 10° NNE
SPOT 5 2.8 04:20:40 76° ENE 04:20:40 76° ENE 04:25:49 10° N
Cosmos 2074 Rocket 4.2 04:15:52 10° N 04:21:59 50° E 04:22:22 50° E
X-37B 3.2 04:23:34 10° NW 04:25:07 22° NNW 04:25:07 22° NNW
SJ 16-02 2.9 04:29:01 27° NE 04:29:01 27° NE 04:31:11 10° NNE
SPOT 1/Viking Rocket 4.5 04:30:34 35° SW 04:31:37 39° W 04:36:29 10° NNW
Terra 2.1 04:33:36 60° NNE 04:33:36 60° NNE 04:37:38 10° N
Milstar 3 3.8 04:23:22 10° WSW 04:34:25 41° S 04:34:25 41° S
Meteor 1-5 Rocket 4.1 04:36:22 10° N 04:41:27 80° NNW 04:41:27 80° NNW
ATLAS 5 CENTAUR R/B 2.6 04:45:53 10° NW 04:51:43 59° WSW 04:51:54 59° SW
Cosmos 1833 Rocket 2.8 04:53:42 10° NNW 04:58:45 71° N 04:58:45 71° N
CZ-4C R/B 3.0 04:55:59 10° NNW 05:03:33 80° ENE 05:04:43 68° ESE
Meteor 1-27 Rocket 4.0 05:14:45 67° N 05:14:45 67° N 05:19:49 10° N
COSMOS 2406 3.9 05:20:44 10° NNW 05:25:09 48° WNW 05:25:09 48° WNW
Cosmos 2082 Rocket 2.8 05:25:35 10° NNW 05:29:54 54° N 05:29:54 54° N
NOSS 3-4 (A) 3.9 05:32:59 10° NNW 05:40:09 76° NE 05:40:16 75° ENE
NOSS 3-4 (C) 3.9 05:33:05 10° NNW 05:40:15 75° NE 05:40:22 75° ENE
USA 215 4.4 05:49:20 27° ENE 05:51:55 36° NNE 05:57:46 10° NNW
Cosmos 2278 Rocket 4.2 05:49:56 19° W 05:51:59 23° NW 05:56:25 10° N
ATLAS 2AS CENTAUR R/B 3.1 05:46:37 10° NNW 05:53:45 55° NE 05:53:51 54° NE
Cosmos 2369 Rocket 3.9 06:05:51 25° NE 06:05:51 25° NE 06:08:20 10° NE
SJ 16-02 4.1 06:05:57 14° WNW 06:05:57 14° WNW 06:08:01 10° NNW
Cosmos 1943 Rocket 3.2 06:17:04 42° NNE 06:17:04 42° NNE 06:20:45 10° NNE
CZ-2D R/B 4.4 06:58:40 10° NE 07:00:42 15° ENE 07:00:42 15° ENE
SeaSat 1 3.9 06:57:35 10° NNE 07:00:36 34° N 07:00:36 34° N
Nadezhda 3 Rocket 4.5 07:19:48 54° NNW 07:19:48 54° NNW 07:24:50 10° N
ATLAS CENTAUR R/B 4.2 07:30:57 13° NNE 07:30:57 13° NNE 07:31:28 10° NNE
Resurs 1-4 Rocket 3.8 07:24:02 10° NE 07:27:22 26° ENE 07:27:22 26° ENE
USA 215 3.8 07:36:38 46° WNW 07:36:38 46° WNW 07:41:07 10° NW
Cosmos 1607 4.5 07:42:36 53° NW 07:42:36 53° NW 07:48:42 10° NNE
ATLAS 2AS CENTAUR R/B 4.3 07:38:22 10° NW 07:41:15 21° WNW 07:41:15 21° WNW
Cosmos 2369 Rocket 3.7 07:47:36 26° NW 07:47:36 26° NW 07:51:55 10° N
Cosmos 1605 Rocket 4.1 07:44:27 10° N 07:50:23 70° ENE 07:50:23 70° ENE
Lacrosse 5 2.6 08:18:22 49° ENE 08:18:22 49° ENE 08:22:13 10° NE
USA 281 3.1 08:21:23 71° W 08:21:23 71° W 08:27:46 10° NNW
BREEZE-M DEB (TANK) 3.5 08:22:01 50° ESE 08:22:01 50° ESE 08:30:23 10° ENE
Cosmos 44 Rocket 3.9 08:17:50 10° NNW 08:22:57 56° NE 08:23:18 54° ENE
SL-16 R/B 2.5 08:23:43 67° SE 08:24:35 79° ENE 08:30:52 10° NNW
NPP 3.7 08:21:05 10° NNE 08:26:12 75° ENE 08:26:12 75° ENE
ISS -0.6 08:34:05 11° NNW 08:34:27 11° NNW 08:35:17 10° N
ARGOS Delta rocket 4.3 08:30:13 10° NNE 08:34:22 53° E 08:34:22 53° E
UNK 4.3 08:36:42 54° NNW 08:36:42 54° NNW 08:40:16 10° NNW
Cosmos 1975 Rocket 3.9 08:39:33 44° ENE 08:39:33 44° ENE 08:43:23 10° NNE
Cosmos 2297 Rocket 4.0 08:36:16 10° N 08:41:12 29° ENE 08:46:05 10° ESE
CZ-2D R/B 2.3 08:36:53 10° N 08:42:01 61° WNW 08:42:01 61° WNW
SL-19 R/B 4.0 08:39:03 10° NNE 08:44:45 82° WNW 08:44:57 80° WSW
Cosmos 371 Rocket 4.1 08:45:59 42° ESE 08:46:16 42° ESE 08:50:52 10° NNE
Cosmos 1727 Rocket 4.1 08:46:02 57° W 08:46:22 58° W 08:52:37 10° N
AQUA 3.9 08:43:31 10° N 08:47:52 71° NNW 08:47:52 71° NNW
Cosmos 1707 4.0 08:50:59 36° N 08:50:59 36° N 08:53:22 10° N
Cosmos 1000 Rocket 4.4 08:50:36 62° S 08:51:48 90° NW 08:58:07 10° N
Tianhe-1 3.7 08:54:25 19° ENE 08:54:25 19° ENE 08:55:33 10° ENE
Helios 1B rocket 3.9 08:54:24 10° N 08:57:02 29° NW 08:57:02 29° NW
IDEFIX/ARIANE 42P 3.5 08:53:17 10° NNE 08:58:16 42° E 09:00:04 31° SE
Meteor 2-10 4.4 08:54:54 10° NNW 08:59:32 48° WNW 08:59:32 48° WNW
In-Cosmos 22 4.1 08:59:18 63° S 09:00:17 86° E 09:05:54 10° N
USA 276 4.2 09:02:50 28° NE 09:02:50 28° NE 09:04:31 10° NE
BREEZE-M R/B 3.8 09:01:39 27° WNW 09:04:27 76° SW 09:14:20 10° SE
Okean 1 Rocket 4.4 09:01:18 10° NNW 09:03:51 29° NW 09:03:51 29° NW
ADEOS II 1.9 09:01:09 10° N 09:06:26 80° WNW 09:07:08 66° SW
Cosmos 1758 4.0 09:03:41 10° NNW 09:06:42 46° NNW 09:06:42 46° NNW
Resurs 1-4 Rocket 3.0 09:03:38 10° N 09:08:18 33° WNW 09:08:26 33° WNW
COSMOS 2455 3.4 09:02:34 10° NNW 09:08:31 58° ENE 09:14:24 10° SE
Cosmos 1726 4.1 09:08:09 10° NNW 09:09:36 21° NW 09:09:36 21° NW
Cosmos 1908 4.3 09:08:00 10° N 09:11:42 41° E 09:12:47 33° ESE
Lacrosse 4 Rocket 3.6 09:11:35 17° SE 09:13:14 20° ESE 09:16:32 10° ENE
Cosmos 2251 Rocket 3.9 09:09:23 10° NNW 09:14:35 61° ENE 09:19:20 12° SSE
Cosmos 2219 4.1 09:10:36 10° NNW 09:16:08 49° ENE 09:21:40 10° SE
Cosmos 1315 Rocket 2.8 09:13:03 10° N 09:16:37 70° NNW 09:16:37 70° NNW
IRS-1D 3.5 09:13:38 10° N 09:18:58 75° WNW 09:20:12 53° SW
Cosmos 1626 2.7 09:21:55 46° ESE 09:22:22 50° E 09:25:58 10° NNE
Cosmos 1725 Rocket 4.0 09:18:20 10° N 09:24:39 80° E 09:29:13 19° S
Timation 2 Rocket 4.4 09:19:37 10° NNW 09:25:31 58° ENE 09:31:26 10° SE
Cosmos 2061 Rocket 4.0 09:19:46 10° N 09:26:07 90° E 09:30:22 23° S
Cosmos 1025 Rocket 3.0 09:25:43 56° S 09:26:34 80° E 09:30:56 10° N
Cosmos 1656 3.6 09:26:49 48° SW 09:28:12 67° WNW 09:33:41 10° NNE
Meteor 1-28 Rocket 3.0 09:30:03 73° WNW 09:30:03 73° WNW 09:33:35 10° NNW
GP-B 3.1 09:30:40 10° N 09:35:07 81° E 09:36:50 37° S
IRS-1C 4.2 09:32:57 10° NNE 09:38:19 77° ESE 09:41:11 28° S
Cosmos 1544 Rocket 3.5 09:34:11 10° N 09:38:35 82° E 09:40:54 28° SSE
CZ-2C R/B 1.8 09:40:07 33° SE 09:40:07 33° SE 09:42:16 10° ESE
Cosmos 2233 Rocket 4.2 09:34:56 10° N 09:41:09 69° E 09:47:16 10° SSE
Cosmos 1459 Rocket 4.4 09:36:37 10° NNW 09:42:24 41° W 09:44:16 33° SW
ADEOS Rocket 3.4 09:37:17 17° S 09:43:05 69° WSW 09:50:45 10° NNW
Cosmos 2016 Rocket 4.0 09:37:02 10° NNW 09:43:12 62° W 09:46:44 26° SSW
Meteor 1-16 Rocket 4.3 09:39:45 10° NNW 09:45:39 68° W 09:49:39 21° S
Cosmos 1340 4.5 09:43:15 12° SSE 09:46:11 28° E 09:49:26 10° NNE
Cosmos 1455 Rocket 3.4 09:45:22 10° NNW 09:49:28 42° W 09:50:01 40° WSW
Cosmos 1536 Rocket 3.5 09:50:07 29° S 09:52:20 85° E 09:56:45 10° N
SL-08 R/B 3.7 09:47:52 10° SSE 09:52:34 63° ENE 09:57:12 10° N
ARIANE 5 R/B 2.5 09:52:20 10° NNE 09:57:32 89° W 10:00:55 22° SSW
OAO 3 Rocket 3.8 09:58:42 32° SW 09:59:46 36° SSW 10:04:15 10° SE
Lacrosse 5 3.5 09:57:34 15° WNW 10:00:31 24° NNW 10:04:39 10° NNE
Cosmos 1697 Rocket 2.7 09:58:11 27° SW 10:01:16 72° WNW 10:06:53 10° NNE
Cosmos 1140 Rocket 4.2 09:56:12 10° N 10:01:19 54° ENE 10:06:25 10° SSE
Centaur D-1AR AC-39 4.0 10:00:53 17° SSW 10:03:45 22° SSE 10:15:03 10° ESE
Cosmos 304 Rocket 3.9 10:03:04 29° SW 10:05:19 57° WNW 10:10:03 10° N
SL-16 R/B 4.1 10:08:48 15° W 10:08:48 15° W 10:12:04 10° WNW
Cosmos 1980 Rocket 2.4 10:06:27 15° S 10:11:08 71° ESE 10:16:48 10° NNE
Cosmos 1953 3.4 10:08:33 10° NW 10:11:50 25° W 10:12:14 25° W
Cosmos 614 Rocket 4.1 10:08:04 10° NNW 10:13:00 50° WSW 10:17:54 10° S
Cosmos 2228 4.5 10:09:51 10° N 10:13:50 38° ENE 10:17:51 10° SSE
Cosmos 1674 4.5 10:14:27 16° W 10:14:44 16° WNW 10:17:14 10° NNW
Cosmos 2369 3.7 10:13:21 20° SSW 10:17:23 72° WNW 10:23:08 10° NNE
BREEZE-M DEB (TANK) 2.3 10:16:08 23° W 10:17:49 45° NW 10:20:01 10° NE
Cosmos 2278 3.9 10:15:57 12° SSW 10:21:12 75° ESE 10:26:54 10° NNE
Cosmos 2227 Rocket 2.3 10:16:06 10° NNW 10:21:35 54° WSW 10:27:03 10° S
ALOS 3.7 10:19:05 10° NNE 10:23:23 36° E 10:27:40 10° SSE
APEX 4.1 10:19:08 10° NNW 10:23:37 75° ENE 10:29:14 10° SSE
Cosmos 2297 Rocket 2.7 10:20:05 10° NW 10:25:15 37° WSW 10:30:24 10° S
Cosmos 405 4.0 10:23:02 10° N 10:26:28 47° E 10:29:50 10° SSE
CZ-3B R/B 3.6 10:26:01 10° S 10:27:52 14° SSE 10:30:37 10° SE
Cosmos 1624 Rocket 4.1 10:24:33 16° SSW 10:28:51 66° WNW 10:34:10 10° NNE
Tianhe-1 1.0 10:26:19 12° WNW 10:29:10 89° NNE 10:32:17 10° ESE
BREEZE-M DEB (TANK) 4.4 10:14:26 10° WNW 10:29:56 79° NNE 10:33:51 10° ESE
Cosmos 407 Rocket 3.5 10:26:49 10° NNW 10:32:09 68° WSW 10:37:26 10° S
Cosmos 2082 3.7 10:27:19 10° NNW 10:33:01 86° WSW 10:38:44 10° SSE
Cosmos 1300 2.9 10:32:35 10° NNW 10:36:17 50° W 10:39:58 10° S
IDEFIX/ARIANE 42P 3.9 10:33:29 10° NNW 10:37:32 23° WNW 10:40:52 13° WSW
SL-16 R/B 4.0 10:33:33 10° SSE 10:38:25 30° ESE 10:43:18 10° NE
CZ-2C R/B 2.8 10:34:28 10° N 10:38:27 82° WNW 10:42:28 10° SSW
Meteor 2-5 Rocket 4.1 10:34:32 11° SSW 10:39:57 49° WNW 10:45:27 10° N
CZ-2C R/B 2.5 10:35:22 10° N 10:40:28 80° WNW 10:45:39 10° SSW
CZ-4B R/B 4.4 10:37:28 10° N 10:41:45 30° WNW 10:45:39 12° SW
Meteor 1-24 Rocket 3.9 10:38:45 10° SSW 10:44:20 56° WNW 10:49:46 10° N
Spot 4 Rocket 4.3 10:41:00 10° N 10:45:58 51° WNW 10:50:55 10° SW
USA 129 2.8 10:44:24 14° SSW 10:45:59 26° WSW 10:47:48 10° NW
Cosmos 1452 Rocket 4.1 10:42:09 10° S 10:47:18 59° ESE 10:52:30 10° NNE
Cosmos 2056 Rocket 4.0 10:44:47 12° SW 10:49:18 42° WNW 10:54:09 10° N
Lacrosse 4 Rocket 2.4 10:47:55 12° WSW 10:51:39 36° WNW 10:55:47 10° N
FENGYUN 3A 3.8 10:47:10 10° NNE 10:52:34 81° ESE 10:57:56 10° S
COSMOS 2455 4.0 10:49:37 10° WNW 10:53:55 21° WSW 10:58:13 10° SSW
Cosmos 1892 Rocket 3.6 10:51:08 10° S 10:55:29 83° E 10:59:51 10° N
PSLV R/B 3.5 10:51:32 10° NNE 10:55:44 90° W 10:59:55 10° SSW
Aureole 2 Rocket 4.5 10:53:53 10° N 10:56:13 25° ENE 10:58:32 10° SE
Cosmos 1455 3.6 10:52:38 10° N 10:56:19 43° E 10:59:59 10° SSE
Cosmos 1954 Rocket 4.1 10:52:09 10° NNW 10:57:27 89° WSW 11:02:44 10° SSE
IRAS Rocket 4.2 10:52:22 10° SSE 10:57:55 79° WSW 11:03:33 10° NNW
PAYLOAD A 4.2 10:54:30 10° N 10:59:03 46° WNW 11:03:30 10° SW
Cosmos 2219 4.4 10:55:40 10° NW 10:59:52 21° W 11:04:04 10° SSW
Cosmos 2058 Rocket 3.8 11:02:43 10° N 11:07:11 61° E 11:11:38 10° SSE
Cosmos 2322 Rocket 3.4 11:04:36 10° S 11:09:55 44° ESE 11:15:17 10° NE
Cosmos 1464 Rocket 4.0 11:05:09 10° NNW 11:11:13 63° W 11:17:19 10° S
